DW4236 Weather Reports


time (UTC)temp
F
wind
direction
speed
knots
gust
knots
rain 1hr
in
rain 24hr
in
rain mn
in
humidity
%
barometer
mb
20260507094104 47 359 0.0 2.6 0.00 0.12 0.04 91 1010.7
20260507093605 47 359 0.9 1.7 0.00 0.12 0.04 90 1010.7
20260507093106 47 359 0.9 2.6 0.00 0.12 0.04 90 1010.6
20260507092606 47 359 0.0 1.7 0.00 0.12 0.04 90 1010.6
20260507092106 48 359 0.0 1.7 0.00 0.12 0.04 90 1010.9
20260507091606 48 359 0.0 0.0 0.00 0.12 0.04 90 1010.8
20260507090105 48 359 0.0 1.7 0.00 0.12 0.04 90 1010.9
20260507085605 49 359 0.0 2.6 0.00 0.12 0.04 90 1010.8
20260507085105 49 359 0.9 2.6 0.00 0.12 0.04 90 1010.8
20260507084106 49 359 0.9 2.6 0.01 0.12 0.04 90 1010.6
20260507083105 49 3 0.9 5.2 0.01 0.12 0.04 91 1010.8
20260507082605 49 0 1.7 2.6 0.01 0.12 0.04 91 1010.7
20260507082105 49 355 0.9 2.6 0.01 0.12 0.04 91 1011.0
20260507081604 49 318 0.9 2.6 0.01 0.12 0.04 91 1011.0
20260507081105 49 315 0.0 2.6 0.01 0.12 0.04 91 1011.1
20260507080604 49 338 1.7 4.3 0.01 0.12 0.04 91 1010.9
20260507080105 50 345 1.7 2.6 0.01 0.12 0.04 91 1011.0
20260507075605 50 313 0.9 2.6 0.02 0.12 0.04 91 1010.9
20260507075106 50 311 0.9 2.6 0.02 0.12 0.04 91 1010.9
20260507074604 50 290 1.7 2.6 0.02 0.12 0.04 91 1011.2
20260507073105 51 326 0.0 2.6 0.01 0.11 0.03 91 1011.1
20260507072105 51 3 0.0 1.7 0.01 0.11 0.03 91 1011.2
20260507071604 51 3 0.9 1.7 0.02 0.11 0.03 91 1011.1
20260507071105 51 323 0.0 2.6 0.02 0.11 0.03 90 1011.3
20260507070605 51 319 0.0 5.2 0.02 0.11 0.03 90 1011.3
20260507070104 51 305 0.0 2.6 0.02 0.11 0.03 90 1011.3
20260507065604 51 304 0.9 2.6 0.01 0.10 0.02 90 1011.4
20260507064606 52 299 0.0 0.9 0.02 0.10 0.02 89 1010.9
20260507063604 52 299 0.0 0.9 0.02 0.10 0.02 89 1010.8
20260507063105 52 299 1.7 2.6 0.02 0.10 0.02 88 1011.0
20260507062605 52 297 1.7 2.6 0.02 0.10 0.02 88 1010.8
20260507062104 52 314 0.0 0.9 0.02 0.10 0.02 87 1010.5
20260507061605 52 314 0.0 0.0 0.01 0.09 0.01 87 1010.7
20260507061105 52 314 0.0 1.7 0.01 0.09 0.01 87 1010.6
20260507060605 53 314 0.9 1.7 0.01 0.09 0.01 86 1010.6
20260507060104 53 314 0.0 1.7 0.01 0.09 0.01 86 1010.5
20260507055604 53 314 0.9 1.7 0.01 0.09 0.01 85 1010.4
20260507055106 53 314 0.9 1.7 0.01 0.09 0.01 84 1010.4
20260507054606 53 344 0.0 0.0 0.00 0.08 0.00 84 1010.0
20260507054106 53 336 0.0 0.0 0.00 0.08 0.00 84 1010.1
20260507053105 53 336 0.0 0.0 0.00 0.08 0.00 83 1010.0
20260507051104 54 321 0.9 1.7 0.00 0.08 0.00 82 1010.1
20260507050105 54 336 0.9 2.6 0.00 0.08 0.00 82 1010.4
20260507045606 54 339 0.9 2.6 0.00 0.08 0.00 82 1010.6
20260507045104 54 339 0.9 2.6 0.00 0.08 0.00 82 1010.8
20260507043604 54 349 0.0 0.0 0.00 0.08 0.00 82 1010.8
20260507043106 54 349 0.0 0.0 0.00 0.08 0.00 81 1010.8
20260507042605 54 349 0.9 2.6 0.00 0.08 0.00 81 1010.8
20260507042104 54 347 0.0 0.0 0.00 0.08 0.00 81 1010.5
20260507041605 54 347 0.0 0.9 0.00 0.08 0.00 81 1010.4
20260507041106 54 347 0.0 0.9 0.00 0.08 0.00 81 1010.6
20260507040605 55 347 0.9 2.6 0.00 0.08 0.00 81 1010.8
20260507040106 55 348 0.0 2.6 0.00 0.08 0.00 81 1010.8
20260507035605 55 336 0.9 2.6 0.00 0.08 0.08 81 1010.8
20260507035105 55 336 1.7 5.2 0.00 0.08 0.08 81 1010.6
20260507034606 55 355 0.0 0.9 0.00 0.08 0.08 81 1010.7
20260507034106 55 353 0.0 4.3 0.00 0.08 0.08 81 1010.5
20260507033105 55 18 0.9 2.6 0.00 0.08 0.08 81 1010.4
20260507032605 55 358 0.9 2.6 0.00 0.08 0.08 81 1010.3
20260507032105 55 5 1.7 2.6 0.00 0.08 0.08 81 1010.2
20260507031605 55 35 0.9 2.6 0.00 0.08 0.08 81 1010.4
20260507031106 55 349 0.9 4.3 0.00 0.08 0.08 81 1010.4
20260507030607 55 14 0.0 0.0 0.00 0.08 0.08 81 1010.6
20260507030105 55 14 0.0 1.7 0.00 0.08 0.08 81 1010.7
20260507025605 55 14 0.0 2.6 0.00 0.08 0.08 81 1010.8
20260507025104 55 12 0.9 2.6 0.00 0.08 0.08 80 1010.7
20260507024605 56 15 2.6 7.0 0.00 0.08 0.08 81 1010.7
20260507024106 56 71 1.7 7.8 0.00 0.08 0.08 81 1010.7
20260507023605 56 3 3.5 7.8 0.00 0.08 0.08 82 1010.7
20260507022604 57 345 1.7 10.4 0.00 0.08 0.08 84 1010.7
20260507022105 57 294 1.7 10.4 0.00 0.08 0.08 84 1010.6
20260507021605 57 340 5.2 8.7 0.00 0.08 0.08 85 1010.4
20260507021105 58 292 4.3 7.8 0.00 0.08 0.08 85 1010.3
20260507020606 58 305 2.6 7.0 0.00 0.08 0.08 85 1010.2
20260507020105 58 317 2.6 5.2 0.00 0.08 0.08 85 1010.1
20260507015605 58 341 1.7 2.6 0.00 0.08 0.08 85 1010.1
20260507015105 58 309 1.7 4.3 0.00 0.08 0.08 85 1010.1
20260507014605 58 305 2.6 6.1 0.00 0.08 0.08 84 1010.2
20260507014104 58 325 4.3 10.4 0.00 0.08 0.08 83 1010.0
20260507013605 58 318 2.6 7.0 0.00 0.08 0.08 83 1010.0
20260507013105 58 342 2.6 7.8 0.00 0.08 0.08 84 1010.0
20260507012605 59 346 4.3 10.4 0.00 0.08 0.08 86 1010.0
20260507012105 59 329 2.6 6.1 0.00 0.08 0.08 87 1009.9
20260507011606 60 298 5.2 7.8 0.00 0.08 0.08 87 1009.9
20260507010604 60 349 2.6 8.7 0.00 0.08 0.08 87 1009.6
20260507010104 60 329 2.6 7.8 0.00 0.08 0.08 88 1009.6
20260507005604 60 299 2.6 7.8 0.00 0.08 0.08 88 1009.3
20260507005105 61 289 5.2 8.7 0.00 0.08 0.08 88 1009.0
20260507004605 61 294 1.7 6.1 0.00 0.08 0.08 88 1008.9
20260507004105 61 300 4.3 7.0 0.00 0.08 0.08 88 1008.8
20260507003607 61 329 4.3 7.0 0.00 0.08 0.08 89 1008.7
20260507003105 62 3 1.7 4.3 0.00 0.08 0.08 89 1008.5
20260507002606 62 330 1.7 2.6 0.00 0.08 0.08 90 1008.4
20260507002104 62 358 0.9 2.6 0.00 0.08 0.08 89 1008.5
20260507001605 62 350 2.6 5.2 0.00 0.08 0.08 89 1008.4
20260507001105 63 336 2.6 5.2 0.00 0.08 0.08 90 1008.4
20260507000604 63 280 0.0 2.6 0.00 0.08 0.08 90 1007.9
20260507000105 63 280 1.7 2.6 0.00 0.08 0.08 90 1007.8
20260506235605 63 268 0.0 2.6 0.00 0.08 0.08 89 1007.7
20260506235105 63 282 0.9 4.3 0.00 0.08 0.08 89 1007.7
20260506234606 63 247 0.0 1.7 0.00 0.08 0.08 89 1007.7
20260506233605 63 231 1.7 7.0 0.00 0.08 0.08 89 1007.7
20260506233105 63 251 1.7 7.0 0.00 0.08 0.08 89 1007.7
20260506232104 64 290 0.0 1.7 0.00 0.08 0.08 89 1007.6
20260506231604 64 289 0.0 1.7 0.00 0.08 0.08 88 1007.5
20260506231105 64 285 0.9 2.6 0.00 0.08 0.08 89 1007.4
20260506230105 64 284 0.9 2.6 0.00 0.08 0.08 88 1007.4
20260506225605 64 282 0.9 2.6 0.00 0.08 0.08 88 1007.4
20260506224605 64 277 0.9 10.4 0.00 0.08 0.08 88 1007.3
20260506224105 64 289 2.6 7.0 0.00 0.08 0.08 88 1007.3
20260506223605 64 276 2.6 7.0 0.00 0.08 0.08 88 1007.2
20260506223105 64 298 2.6 8.7 0.00 0.08 0.08 89 1007.2
20260506222605 64 274 4.3 11.3 0.00 0.08 0.08 89 1007.2
20260506221605 64 262 1.7 6.1 0.00 0.08 0.08 89 1007.1
20260506221105 64 272 2.6 8.7 0.00 0.08 0.08 89 1007.1
20260506220604 64 298 4.3 8.7 0.00 0.08 0.08 89 1007.2
20260506220104 64 290 2.6 7.8 0.00 0.08 0.08 89 1007.1
20260506215105 64 301 7.0 12.2 0.00 0.08 0.08 89 1007.2
20260506214604 64 278 2.6 7.0 0.00 0.08 0.08 90 1007.1
20260506214105 64 283 2.6 7.8 0.00 0.08 0.08 90 1007.1
20260506213605 64 263 4.3 7.0 0.00 0.08 0.08 91 1007.1
20260506213105 64 253 0.9 2.6 0.00 0.08 0.08 91 1007.1
20260506212606 64 278 0.0 2.6 0.00 0.08 0.08 91 1007.0
20260506212105 64 272 0.9 2.6 0.00 0.08 0.08 92 1006.9
20260506211604 64 255 0.9 2.6 0.00 0.08 0.08 92 1006.6
20260506211105 64 235 0.9 2.6 0.00 0.08 0.08 92 1006.8
20260506210606 64 194 0.9 1.7 0.00 0.08 0.08 92 1006.8
20260506210105 64 199 0.0 1.7 0.00 0.08 0.08 92 1006.8
20260506205604 64 287 0.0 5.2 0.00 0.08 0.08 92 1006.8
20260506205105 64 278 1.7 2.6 0.00 0.08 0.08 92 1006.8
20260506204606 64 240 0.9 2.6 0.01 0.08 0.08 91 1006.8
20260506204106 64 257 0.9 2.6 0.01 0.08 0.08 91 1006.7
20260506203604 63 256 1.7 4.3 0.01 0.08 0.08 91 1006.8
20260506203105 64 226 0.9 2.6 0.01 0.08 0.08 91 1006.6
20260506202605 64 252 0.9 2.6 0.01 0.08 0.08 91 1006.6
20260506202104 64 218 1.7 4.3 0.01 0.08 0.08 91 1006.7
20260506201604 64 232 0.9 4.3 0.01 0.08 0.08 91 1006.8
20260506201105 63 246 1.7 5.2 0.01 0.08 0.08 91 1006.9
20260506200604 63 250 2.6 10.4 0.01 0.08 0.08 91 1007.0
20260506200104 64 269 3.5 10.4 0.01 0.08 0.08 91 1007.0
20260506195605 64 228 1.7 5.2 0.01 0.08 0.08 91 1007.1
20260506195104 64 255 2.6 8.7 0.01 0.08 0.08 91 1007.1
20260506194604 64 269 1.7 7.0 0.00 0.07 0.07 92 1007.2
20260506194105 64 262 2.6 6.1 0.00 0.07 0.07 92 1007.3
20260506193604 64 235 1.7 7.8 0.00 0.07 0.07 92 1007.3
20260506192604 64 262 2.6 7.0 0.00 0.07 0.07 92 1007.4
20260506192105 64 217 1.7 4.3 0.00 0.07 0.07 92 1007.5
20260506191604 64 222 1.7 7.0 0.00 0.07 0.07 92 1007.5
20260506191105 63 220 1.7 4.3 0.00 0.07 0.07 92 1007.7
20260506190605 63 275 1.7 4.3 0.00 0.07 0.07 92 1007.7
20260506185605 63 264 2.6 6.1 0.01 0.07 0.07 91 1007.7
20260506185105 63 245 3.5 10.4 0.01 0.07 0.07 91 1007.8
20260506184604 63 249 1.7 4.3 0.02 0.07 0.07 91 1007.8
20260506184105 63 265 1.7 4.3 0.02 0.07 0.07 91 1007.9
20260506183605 63 270 2.6 7.0 0.02 0.07 0.07 91 1007.8
20260506182105 63 281 3.5 8.7 0.02 0.07 0.07 90 1007.9
20260506181605 63 272 2.6 10.4 0.02 0.07 0.07 90 1007.8
20260506180105 63 248 3.5 7.0 0.02 0.07 0.07 90 1008.0
20260506175604 63 280 1.7 7.8 0.02 0.06 0.06 90 1008.0
20260506175105 63 261 3.5 8.7 0.02 0.06 0.06 90 1008.1
20260506174606 63 305 1.7 7.0 0.01 0.05 0.05 90 1008.0
20260506174104 63 252 3.5 10.4 0.01 0.05 0.05 90 1008.0
20260506173604 63 279 3.5 10.4 0.01 0.05 0.05 90 1008.0
20260506173104 63 291 1.7 6.1 0.02 0.05 0.05 90 1008.2
20260506172605 63 269 1.7 2.6 0.02 0.05 0.05 90 1008.1
20260506171605 63 285 0.9 4.3 0.03 0.05 0.05 89 1007.9
20260506171104 63 263 1.7 5.2 0.04 0.05 0.05 89 1008.1
20260506170605 63 219 1.7 4.3 0.04 0.05 0.05 89 1008.0
20260506170104 63 235 0.9 5.2 0.04 0.05 0.05 89 1008.0
20260506165105 64 190 0.0 1.7 0.04 0.04 0.04 89 1008.0
20260506164604 64 190 1.7 2.6 0.04 0.04 0.04 88 1008.1
20260506164112 64 220 0.9 2.6 0.04 0.04 0.04 88 1008.2
20260506163604 64 221 0.0 0.0 0.04 0.04 0.04 87 1008.5
20260506163104 64 221 0.0 0.0 0.03 0.03 0.03 87 1008.8
20260506162105 64 221 0.0 0.9 0.02 0.02 0.02 86 1009.1
20260506161108 64 221 0.0 0.0 0.01 0.01 0.01 85 1009.1
20260506160105 65 220 0.0 1.7 0.01 0.01 0.01 83 1009.1
20260506155605 65 216 0.9 5.2 0.01 0.01 0.01 82 1009.1
20260506155104 65 229 2.6 8.7 0.00 0.00 0.00 81 1009.1
20260506154605 66 256 0.9 5.2 0.00 0.00 0.00 81 1009.2
20260506154105 66 249 1.7 4.3 0.00 0.00 0.00 80 1009.2
20260506153604 66 225 1.7 4.3 0.00 0.00 0.00 80 1009.1
20260506153104 66 268 0.9 8.7 0.00 0.00 0.00 79 1009.1
20260506152604 67 222 1.7 7.8 0.00 0.00 0.00 78 1009.2
20260506152104 67 275 1.7 5.2 0.00 0.00 0.00 76 1009.3
20260506151604 67 251 2.6 5.2 0.00 0.00 0.00 75 1009.4
20260506151105 67 265 2.6 7.0 0.00 0.00 0.00 75 1009.4
20260506150605 67 281 2.6 7.8 0.00 0.00 0.00 75 1009.4
20260506150105 68 263 1.7 7.8 0.00 0.00 0.00 75 1009.4
20260506145604 68 246 3.5 7.8 0.00 0.00 0.00 74 1009.3
20260506145105 68 197 0.9 2.6 0.00 0.00 0.00 74 1009.3
20260506144604 68 241 1.7 6.1 0.00 0.00 0.00 74 1009.4
20260506144105 68 235 1.7 6.1 0.00 0.00 0.00 74 1009.3
20260506143605 68 246 0.9 2.6 0.00 0.00 0.00 74 1009.3
20260506143106 68 279 1.7 7.8 0.00 0.00 0.00 74 1009.3
20260506142106 68 279 0.9 4.3 0.00 0.00 0.00 74 1009.4
20260506141605 68 214 2.6 8.7 0.00 0.00 0.00 74 1009.5
20260506140104 68 260 0.9 7.0 0.00 0.00 0.00 75 1009.6
20260506135604 67 253 1.7 7.0 0.00 0.00 0.00 75 1009.7
20260506135105 67 243 2.6 7.8 0.00 0.00 0.00 76 1009.7
20260506134604 67 273 2.6 7.0 0.00 0.00 0.00 75 1009.6
20260506134104 67 234 2.6 7.0 0.00 0.00 0.00 76 1009.5
20260506133604 67 211 2.6 6.1 0.00 0.00 0.00 76 1009.4
20260506132605 67 242 4.3 7.8 0.00 0.00 0.00 75 1009.3
20260506131605 67 256 2.6 6.1 0.00 0.00 0.00 76 1009.5
20260506131104 67 240 2.6 13.0 0.00 0.00 0.00 76 1009.4
20260506130604 67 239 2.6 7.8 0.00 0.00 0.00 76 1009.1
20260506130104 67 271 4.3 7.8 0.00 0.00 0.00 76 1009.2
20260506125105 67 263 4.3 8.7 0.00 0.00 0.00 76 1009.1
20260506124604 67 260 2.6 11.3 0.00 0.00 0.00 76 1009.2
20260506124105 67 232 2.6 11.3 0.00 0.00 0.00 76 1009.3
20260506123605 67 275 3.5 8.7 0.00 0.00 0.00 76 1009.4
20260506123105 66 247 1.7 8.7 0.00 0.00 0.00 76 1009.4
20260506122604 66 282 4.3 7.8 0.00 0.00 0.00 76 1009.4
20260506122105 66 264 2.6 10.4 0.00 0.00 0.00 76 1009.4
20260506121604 66 234 2.6 7.0 0.00 0.00 0.00 76 1009.3
20260506121104 66 290 5.2 10.4 0.00 0.00 0.00 76 1009.4
20260506120605 66 252 5.2 10.4 0.00 0.00 0.00 76 1009.5
20260506115605 66 271 4.3 8.7 0.00 0.00 0.00 76 1009.6
20260506115105 66 276 1.7 13.0 0.00 0.00 0.00 77 1009.7
20260506114605 66 251 4.3 10.4 0.00 0.00 0.00 77 1009.7
20260506114105 66 272 1.7 4.3 0.00 0.00 0.00 77 1009.6
20260506113605 66 237 2.6 5.2 0.00 0.00 0.00 77 1009.4
20260506113105 66 263 1.7 11.3 0.00 0.00 0.00 78 1009.4
20260506112605 66 258 6.1 11.3 0.00 0.00 0.00 77 1009.5
20260506111604 66 278 1.7 7.0 0.00 0.00 0.00 78 1009.5
20260506111105 66 192 1.7 5.2 0.00 0.01 0.00 78 1009.3
20260506110604 66 240 4.3 12.2 0.00 0.01 0.00 78 1009.3
20260506110105 66 220 1.7 7.8 0.00 0.01 0.00 78 1009.2
20260506105604 66 243 2.6 10.4 0.00 0.02 0.00 78 1009.3
20260506104605 66 254 2.6 11.3 0.00 0.02 0.00 78 1009.3
20260506104104 66 275 2.6 10.4 0.00 0.02 0.00 77 1009.3
20260506103606 66 247 3.5 7.0 0.00 0.02 0.00 77 1009.2
20260506103105 66 263 2.6 7.8 0.00 0.02 0.00 77 1009.2
20260506102605 66 260 4.3 10.4 0.00 0.02 0.00 77 1009.2
20260506102104 66 232 3.5 8.7 0.00 0.02 0.00 77 1009.1
20260506101104 66 275 3.5 10.4 0.00 0.02 0.00 77 1009.1
20260506100604 66 222 4.3 11.3 0.00 0.02 0.00 77 1008.9
20260506100104 65 247 1.7 10.4 0.00 0.02 0.00 77 1009.0
20260506095106 65 263 2.6 6.1 0.00 0.02 0.00 77 1009.0